• In Hungary
  • List of Countries
  • For 7 days
  • Water Temperature
  • Satellite Maps
  • Weather Map
  • News
  • Weather Widgets
  • user-avatar
    Login

    Hourly Weather Pochinovo

    Today, 21 June, Thursday

    Time Temperature Precipitation Wind Pressure Humidity
    00:00 +12°C° 0 mm 3 mps 739 mmHg 70%
    01:00 +12°C° 0 mm 3 mps 739 mmHg 72%
    02:00 +12°C° 0 mm 2 mps 739 mmHg 79%
    03:00 +11°C° 0 mm 3 mps 739 mmHg 77%
    04:00 +11°C° 0 mm 3 mps 739 mmHg 75%
    05:00 +12°C° 0 mm 4 mps 739 mmHg 73%
    06:00 +13°C° 0 mm 4 mps 740 mmHg 67%
    07:00 +15°C° 0 mm 4 mps 740 mmHg 61%
    08:00 +18°C° 0 mm 4 mps 740 mmHg 55%
    09:00 +17°C° 0 mm 5 mps 739 mmHg 55%
    10:00 +19°C° 0 mm 5 mps 739 mmHg 54%
    11:00 +20°C° 0 mm 5 mps 739 mmHg 53%
    12:00 +21°C° 0 mm 5 mps 739 mmHg 55%
    13:00 +21°C° 0 mm 5 mps 739 mmHg 56%
    14:00 +21°C° 0 mm 4 mps 740 mmHg 58%
    15:00 +21°C° 0 mm 4 mps 740 mmHg 60%
    16:00 +21°C° 0 mm 3 mps 740 mmHg 62%
    17:00 +21°C° 0 mm 3 mps 740 mmHg 64%
    18:00 +20°C° 0 mm 2 mps 740 mmHg 71%
    19:00 +19°C° 0 mm 2 mps 740 mmHg 78%
    20:00 +18°C° 0 mm 1 mps 740 mmHg 85%
    21:00 +18°C° 0 mm 1 mps 740 mmHg 88%
    22:00 +16°C° 0 mm 2 mps 740 mmHg 91%
    23:00 +15°C° 0 mm 2 mps 739 mmHg 94%

    Tomorrow, 22 June, Friday

    Time Temperature Precipitation Wind Pressure Humidity
    00:00 +15°C° 0 mm 2 mps 739 mmHg 95%
    01:00 +15°C° 0 mm 2 mps 739 mmHg 95%
    02:00 +15°C° 0 mm 2 mps 739 mmHg 96%
    03:00 +16°C° 0 mm 3 mps 739 mmHg 92%
    04:00 +17°C° 0 mm 3 mps 739 mmHg 88%
    05:00 +18°C° 0 mm 3 mps 738 mmHg 84%
    06:00 +19°C° 0 mm 4 mps 738 mmHg 77%
    07:00 +21°C° 0 mm 5 mps 738 mmHg 70%
    08:00 +23°C° 0 mm 5 mps 738 mmHg 63%
    09:00 +25°C° 0.1 mm 5 mps 737 mmHg 63%
    10:00 +25°C° 0.1 mm 5 mps 737 mmHg 62%
    11:00 +26°C° 0.1 mm 5 mps 737 mmHg 62%
    12:00 +25°C° 0.9 mm 5 mps 737 mmHg 70%
    13:00 +25°C° 0.9 mm 5 mps 737 mmHg 78%
    14:00 +25°C° 0.9 mm 5 mps 737 mmHg 85%
    15:00 +23°C° 1.9 mm 4 mps 737 mmHg 88%
    16:00 +22°C° 1.9 mm 4 mps 737 mmHg 90%
    17:00 +21°C° 1.9 mm 4 mps 737 mmHg 93%
    18:00 +20°C° 0.8 mm 3 mps 737 mmHg 93%
    19:00 +19°C° 0.8 mm 3 mps 738 mmHg 94%
    20:00 +18°C° 0.8 mm 3 mps 738 mmHg 94%
    21:00 +16°C° 0 mm 2 mps 738 mmHg 95%
    22:00 +15°C° 0 mm 2 mps 739 mmHg 95%
    23:00 +13°C° 0 mm 2 mps 739 mmHg 96%

    Day after tomorrow, 23 June, Saturday

    Time Temperature Precipitation Wind Pressure Humidity
    00:00 +13°C° 0 mm 2 mps 739 mmHg 96%
    01:00 +12°C° 0 mm 2 mps 740 mmHg 96%
    02:00 +11°C° 0 mm 1 mps 740 mmHg 96%
    03:00 +12°C° 0 mm 1 mps 740 mmHg 95%
    04:00 +12°C° 0 mm 1 mps 741 mmHg 93%
    05:00 +13°C° 0 mm 1 mps 741 mmHg 92%
    06:00 +15°C° 0 mm 1 mps 741 mmHg 82%
    07:00 +18°C° 0 mm 1 mps 741 mmHg 73%
    08:00 +19°C° 0 mm 1 mps 742 mmHg 64%
    09:00 +19°C° 0 mm 1 mps 742 mmHg 65%
    10:00 +19°C° 0 mm 1 mps 742 mmHg 67%
    11:00 +19°C° 0 mm 1 mps 742 mmHg 69%
    12:00 +20°C° 0 mm 1 mps 741 mmHg 68%
    13:00 +20°C° 0 mm 1 mps 741 mmHg 68%
    14:00 +19°C° 0 mm 2 mps 741 mmHg 67%
    15:00 +19°C° 0.1 mm 2 mps 740 mmHg 70%
    16:00 +19°C° 0.1 mm 2 mps 740 mmHg 72%
    17:00 +19°C° 0.1 mm 2 mps 740 mmHg 75%
    18:00 +18°C° 0.4 mm 2 mps 740 mmHg 80%
    19:00 +17°C° 0.4 mm 2 mps 739 mmHg 86%
    20:00 +16°C° 0.4 mm 2 mps 739 mmHg 92%
    21:00 +16°C° 0.3 mm 2 mps 739 mmHg 93%
    22:00 +16°C° 0.3 mm 2 mps 738 mmHg 95%
    23:00 +16°C° 0.3 mm 2 mps 738 mmHg 96%

    24 June, Sunday

    Time Temperature Precipitation Wind Pressure Humidity
    00:00 +16°C° 0.5 mm 2 mps 738 mmHg 97%
    01:00 +17°C° 0.5 mm 3 mps 737 mmHg 97%
    02:00 +17°C° 0.5 mm 3 mps 737 mmHg 97%
    03:00 +18°C° 0.3 mm 3 mps 736 mmHg 96%
    04:00 +18°C° 0.3 mm 4 mps 736 mmHg 95%
    05:00 +19°C° 0.3 mm 4 mps 735 mmHg 94%
    06:00 +20°C° 0 mm 5 mps 735 mmHg 87%
    07:00 +22°C° 0 mm 6 mps 735 mmHg 79%
    08:00 +23°C° 0 mm 7 mps 735 mmHg 71%
    09:00 +24°C° 0.3 mm 6 mps 735 mmHg 71%
    10:00 +24°C° 0.3 mm 6 mps 736 mmHg 70%
    11:00 +26°C° 0.3 mm 5 mps 736 mmHg 70%
    12:00 +25°C° 1.2 mm 5 mps 736 mmHg 76%
    13:00 +23°C° 1.2 mm 5 mps 736 mmHg 82%
    14:00 +22°C° 1.2 mm 4 mps 736 mmHg 88%
    15:00 +22°C° 0.8 mm 4 mps 737 mmHg 87%
    16:00 +21°C° 0.8 mm 4 mps 737 mmHg 86%
    17:00 +21°C° 0.8 mm 5 mps 737 mmHg 85%
    18:00 +19°C° 0 mm 4 mps 738 mmHg 84%
    19:00 +18°C° 0 mm 4 mps 738 mmHg 83%
    20:00 +15°C° 0 mm 4 mps 739 mmHg 82%
    21:00 +14°C° 0 mm 4 mps 739 mmHg 83%
    22:00 +12°C° 0 mm 4 mps 740 mmHg 84%
    23:00 +11°C° 0 mm 3 mps 740 mmHg 85%

    25 June, Monday

    Time Temperature Precipitation Wind Pressure Humidity
    00:00 +11°C° 0 mm 3 mps 741 mmHg 87%
    01:00 +10°C° 0 mm 3 mps 741 mmHg 88%
    02:00 +10°C° 0 mm 3 mps 742 mmHg 89%
    03:00 +10°C° 0 mm 3 mps 742 mmHg 87%
    04:00 +11°C° 0 mm 4 mps 743 mmHg 85%
    05:00 +11°C° 0 mm 4 mps 743 mmHg 83%
    06:00 +12°C° 0 mm 4 mps 743 mmHg 77%
    07:00 +14°C° 0 mm 4 mps 744 mmHg 71%
    08:00 +17°C° 0 mm 4 mps 744 mmHg 65%
    09:00 +18°C° 0 mm 4 mps 744 mmHg 60%
    10:00 +19°C° 0 mm 4 mps 745 mmHg 56%
    11:00 +21°C° 0 mm 4 mps 745 mmHg 51%
    12:00 +21°C° 0 mm 4 mps 745 mmHg 51%
    13:00 +22°C° 0 mm 3 mps 745 mmHg 50%
    14:00 +22°C° 0 mm 3 mps 745 mmHg 50%
    15:00 +22°C° 0 mm 3 mps 745 mmHg 52%
    16:00 +22°C° 0 mm 3 mps 745 mmHg 55%
    17:00 +22°C° 0 mm 3 mps 745 mmHg 58%
    18:00 +20°C° 0.1 mm 2 mps 745 mmHg 67%
    19:00 +18°C° 0.1 mm 2 mps 745 mmHg 77%
    20:00 +16°C° 0.1 mm 1 mps 745 mmHg 87%
    21:00 +15°C° 0 mm 1 mps 746 mmHg 89%
    22:00 +14°C° 0 mm 1 mps 746 mmHg 92%
    23:00 +13°C° 0 mm 1 mps 746 mmHg 94%

    26 June, Tuesday

    Time Temperature Precipitation Wind Pressure Humidity
    00:00 +13°C° 0 mm 1 mps 746 mmHg 95%
    01:00 +12°C° 0 mm 1 mps 746 mmHg 95%
    02:00 +12°C° 0 mm 1 mps 746 mmHg 96%
    03:00 +13°C° 0 mm 1 mps 747 mmHg 95%
    04:00 +13°C° 0 mm 1 mps 747 mmHg 93%
    05:00 +14°C° 0 mm 1 mps 747 mmHg 92%
    06:00 +16°C° 0 mm 1 mps 748 mmHg 84%
    07:00 +18°C° 0 mm 2 mps 748 mmHg 76%
    08:00 +19°C° 0 mm 2 mps 748 mmHg 68%
    09:00 +21°C° 0 mm 2 mps 748 mmHg 62%
    10:00 +23°C° 0 mm 2 mps 748 mmHg 57%
    11:00 +24°C° 0 mm 3 mps 748 mmHg 51%
    12:00 +24°C° 0 mm 3 mps 748 mmHg 49%
    13:00 +25°C° 0 mm 3 mps 748 mmHg 47%
    14:00 +25°C° 0 mm 3 mps 748 mmHg 46%
    15:00 +25°C° 0 mm 2 mps 748 mmHg 48%
    16:00 +25°C° 0 mm 2 mps 748 mmHg 51%
    17:00 +25°C° 0 mm 2 mps 748 mmHg 53%
    18:00 +23°C° 0 mm 1 mps 749 mmHg 60%
    19:00 +21°C° 0 mm 1 mps 749 mmHg 67%
    20:00 +19°C° 0 mm 1 mps 749 mmHg 74%
    21:00 +19°C° 0 mm 1 mps 749 mmHg 76%
    22:00 +18°C° 0 mm 1 mps 749 mmHg 77%
    23:00 +16°C° 0 mm 1 mps 749 mmHg 78%
    Show more